Das Wetter in  D-61279 Heinzenberg / Taunus





Wetter Minimum- & Maximum-Werte im Februar 2016

Standort: Heinzenberg / Taunus - Höhe 297 m         8 24' 1" Ost 50 21' 51" Nord
(   3-stündige Aktualisierung    letzte Aktualisierung um 19:04 am 29.02.2016  )


Messgrösse

Minimum

Maximum

Durchschnitt

Temperatur West /
Luftfeuchte West
Anklicken für Monats-Diagramm

-5,1 C

07:18
25.02.2016

46 %

15:10
27.02.2016

13,2 C

15:41
06.02.2016

92 %

01:41
01.02.2016

Temp

3,5 C

Feuchte

80 %

Temperatur Ost /
Luftfeuchte Ost
Anklicken für Monats-Diagramm

-4,7 C

07:28
25.02.2016

--

--
--

12,0 C

15:30
21.02.2016

--

--
--

4,5 C

--

Luftdruck Anklicken für Monats-Diagramm

981,0 hPa

18:29
09.02.2016

1036,9 hPa

11:10
16.02.2016

1011,6 hPa

Taupunkt

-7,1 C

07:18
25.02.2016

9,2 C

03:11
01.02.2016

0,4 C

Windchill
( gefühlte Temperatur )

-13,7 C

09:54
20.02.2016

13,1 C

15:56
06.02.2016

-0,5 C

Windgeschwindigkeit /
Windrichtung
Anklicken für Monats-Diagramm

---

63,5 km/h / W-SW

10:33
08.02.2016

12,4 km/h
W

Helligkeit /
Sonnenschein
Anklicken für Monats-Diagramm
Anklicken für Monats-Diagramm

Sonnenschein:

45:01 Stunden

Max: 9:15 Std am
27.02.2016

61,6 klux

11:17
24.02.2016

10,9 klux

Solarstrahlung Anklicken für Monats-Diagramm

---

421 W/m

11:17
24.02.2016

82 W/m

Regenmenge
    Februar 2016
Anklicken für Monats-Diagramm

Insgesamt 65,1 l/m

in 116:46 Stunden
an 20 Tagen

12,6 l/m

13:04
20.02.2016

Gesamtmenge

65,1 l/m

Regen-Tage
    Februar 2016
Anklicken für Monats-Diagramm

>   0 mm/Tag

>   2 mm/Tag

>   5 mm/Tag

> 10 mm/Tag

> 20 mm/Tag

20 Tage     
9 Tage     
7 Tage     
  1 Tag     
0 Tage     

Eisige Tage Februar 2016 / 2015

Tmin ≤ -10C     

0 Tage

/

0 Tage

Eistage Februar 2016 / 2015

Tmax <     0C     

0 Tage

/

0 Tage

Frosttage Februar 2016 / 2015

Tmin ≤     0C     

13 Tage

/

21 Tage

Kalte Tage Februar 2016 / 2015

Tmax <   10C     

23 Tage

/

28 Tage

Warme Tage Februar 2016 / 2015

Tmax ≥   20C     

0 Tage

/

0 Tage

Sommertage Februar 2016 / 2015

Tmax ≥   25C     

0 Tage

/

0 Tage

Heisse Tage Februar 2016 / 2015

Tmax ≥   30C     

0 Tage

/

0 Tage


Monatsdiagramm Februar 2016

Die Kurven zeigen den Durchschnittswert des jeweiligen Tages an


Wetter-Monatsübersicht Februar 2016
Datum
  Temperatur
   Luftdruck
   Wind
  Regen
   Luftfeuchte
   Helligkeit

Sonnen-
schein


Temp.

Min.
Temp.

Max.
Temp.


Luftdruck

Min.
Luftdruck

Max.
Luftdruck

-Geschw.
Haupt-Richtg.

Max.
Wind

Menge /
Dauer


Feuchte

Min.
Feuchte

Max.
Feuchte


Helligkeit

Max.
Helligkeit

1.
Februar
10,2 C9,2 C
23:37
11,4 C
11:56
1017,5 hPa1009,7 hPa
00:01
1021,0 hPa
17:11
34,1 km/h
W
60,8 km/h
13:26  
1,7 l/m
7:55 Stunden
83 %72 %
18:26
92 %
01:41
5,8 klux23,0 klux
11:51
--- 
2.
Februar
9,0 C4,7 C
23:43
11,2 C
12:52
1016,2 hPa1011,6 hPa
16:17
1020,1 hPa
00:02
34,1 km/h
W
53,9 km/h
12:47  
5,3 l/m
3:50 Stunden
80 %74 %
15:57
90 %
19:37
4,4 klux17,4 klux
12:42
--- 
3.
Februar
3,4 C1,8 C
19:18
5,6 C
11:53
1018,7 hPa1015,6 hPa
06:23
1025,1 hPa
22:54
17,6 km/h
W
51,1 km/h
00:58  
0,5 l/m
2:35 Stunden
81 %75 %
15:48
88 %
01:38
12,7 klux49,2 klux
11:53
1:30 Std 
4.
Februar
2,4 C1,2 C
03:49
4,1 C
19:39
1023,2 hPa1017,8 hPa
16:14
1026,3 hPa
03:49
14,4 km/h
W
30,8 km/h
10:19  
5,0 l/m
11:30 Stunden
88 %80 %
10:54
92 %
19:09
5,1 klux13,9 klux
10:04
--- 
5.
Februar
5,3 C2,0 C
00:40
8,0 C
16:15
1025,2 hPa1021,3 hPa
22:56
1028,2 hPa
07:50
4,4 km/h
W-SW
21,8 km/h
13:35  
0,3 l/m
1:00 Stunden
88 %84 %
20:25
90 %
00:05
5,1 klux17,8 klux
12:50
--- 
6.
Februar
8,7 C4,3 C
07:21
13,2 C
15:41
1013,7 hPa1005,3 hPa
23:32
1021,3 hPa
00:01
9,0 km/h
SW
29,9 km/h
12:51  
---
75 %60 %
15:31
88 %
07:31
21,1 klux44,2 klux
12:21
6:00 Std 
7.
Februar
8,7 C5,7 C
22:53
11,4 C
00:17
1003,8 hPa1000,3 hPa
09:07
1007,1 hPa
22:53
21,5 km/h
W-SW
47,0 km/h
17:07  
2,0 l/m
2:10 Stunden
68 %58 %
01:52
82 %
12:47
6,6 klux37,8 klux
10:37
5 Min 
8.
Februar
6,3 C5,5 C
14:18
8,4 C
15:03
999,3 hPa994,5 hPa
13:43
1006,0 hPa
00:03
34,7 km/h
W-SW
63,5 km/h
10:33  
5,9 l/m
4:00 Stunden
76 %64 %
22:34
87 %
13:33
5,8 klux51,2 klux
14:28
50 Min 
9.
Februar
5,9 C3,0 C
21:34
8,2 C
14:29
992,8 hPa981,0 hPa
18:29
1001,9 hPa
04:19
30,2 km/h
W-SW
62,9 km/h
19:39  
7,9 l/m
5:35 Stunden
79 %64 %
00:04
87 %
16:54
5,2 klux34,7 klux
12:19
5 Min 
10.
Februar
2,7 C1,3 C
13:30
3,5 C
11:25
995,6 hPa989,8 hPa
21:40
1001,2 hPa
23:20
20,6 km/h
W
36,8 km/h
12:15  
3,0 l/m
9:00 Stunden
82 %75 %
06:35
90 %
23:15
6,4 klux22,1 klux
09:35
10 Min 
11.
Februar
3,2 C1,9 C
08:15
6,7 C
16:15
1005,2 hPa1001,2 hPa
00:00
1006,5 hPa
22:05
11,4 km/h
W-SW
31,3 km/h
11:45  
0,2 l/m
2:46 Stunden
83 %71 %
16:05
90 %
00:00
14,3 klux54,8 klux
11:25
1:46 Std 
12.
Februar
1,6 C-2,3 C
23:42
7,3 C
16:21
1001,1 hPa995,6 hPa
23:07
1006,5 hPa
00:11
2,2 km/h
O-SO
22,0 km/h
13:01  
---
10 Minuten
80 %64 %
16:16
88 %
08:56
14,5 klux58,7 klux
13:01
2:20 Std 
13.
Februar
-0,3 C-4,4 C
06:47
3,0 C
23:48
991,0 hPa982,5 hPa
23:48
996,8 hPa
03:32
2,0 km/h
O-SO
20,3 km/h
13:57  
3,3 l/m
7:26 Stunden
86 %80 %
12:22
91 %
23:43
7,3 klux25,9 klux
11:32
--- 
14.
Februar
3,7 C2,3 C
23:14
4,9 C
07:18
988,6 hPa982,4 hPa
03:38
998,2 hPa
23:14
4,0 km/h
W
17,5 km/h
12:18  
5,2 l/m
10:01 Stunden
90 %87 %
17:18
92 %
03:38
3,6 klux11,3 klux
15:33
--- 
15.
Februar
1,2 C-0,3 C
23:45
2,3 C
00:04
1012,9 hPa998,2 hPa
00:04
1028,6 hPa
23:45
2,0 km/h
NW
15,1 km/h
17:19  
1,4 l/m
6:50 Stunden
90 %87 %
23:34
91 %
04:09
2,6 klux9,6 klux
12:29
--- 
16.
Februar
-0,4 C-2,6 C
07:35
5,3 C
16:30
1034,2 hPa1028,6 hPa
00:00
1036,9 hPa
11:10
2,4 km/h
N
14,3 km/h
15:45  
---
75 %56 %
15:45
87 %
00:00
22,9 klux57,9 klux
12:00
5:20 Std 
17.
Februar
0,3 C-2,5 C
08:46
4,5 C
13:31
1022,3 hPa1014,9 hPa
23:17
1032,9 hPa
00:01
1,2 km/h
O
16,0 km/h
23:47  
---
76 %64 %
13:21
82 %
09:16
17,5 klux50,8 klux
13:11
4:05 Std 
18.
Februar
1,2 C-2,2 C
23:33
5,8 C
15:52
1016,2 hPa1014,9 hPa
00:02
1018,5 hPa
23:33
3,4 km/h
W-SW
18,6 km/h
15:22  
---
74 %57 %
15:47
81 %
00:22
9,7 klux31,5 klux
14:57
1:25 Std 
19.
Februar
-0,3 C-2,2 C
00:03
1,7 C
15:53
1020,8 hPa1018,3 hPa
05:58
1023,5 hPa
20:28
2,1 km/h
W-NW
17,0 km/h
14:08  
0,3 l/m
3:40 Stunden
85 %79 %
00:03
89 %
21:28
6,1 klux17,1 klux
10:53
--- 
20.
Februar
3,9 C0,5 C
01:49
9,0 C
23:55
1015,1 hPa1009,8 hPa
23:40
1022,2 hPa
01:09
20,6 km/h
W-SW
42,5 km/h
09:54  
12,6 l/m
13:26 Stunden
88 %83 %
04:29
92 %
22:04
5,6 klux16,5 klux
13:34
--- 
21.
Februar
10,4 C9,0 C
00:00
11,8 C
15:00
1012,3 hPa1009,7 hPa
00:50
1013,8 hPa
11:00
34,2 km/h
W
61,7 km/h
15:35  
0,8 l/m
4:00 Stunden
84 %78 %
18:20
92 %
00:00
5,2 klux14,3 klux
14:55
--- 
22.
Februar
8,7 C2,9 C
23:56
10,0 C
12:26
1008,8 hPa1006,6 hPa
17:16
1011,8 hPa
00:56
29,3 km/h
W
52,4 km/h
08:21  
2,0 l/m
5:21 Stunden
78 %73 %
10:56
87 %
23:21
7,0 klux56,3 klux
10:21
15 Min 
23.
Februar
1,6 C0,3 C
06:51
5,6 C
15:21
1013,3 hPa1010,5 hPa
00:01
1019,0 hPa
23:52
4,6 km/h
W
20,6 km/h
16:56  
7,8 l/m
15:01 Stunden
89 %81 %
15:26
92 %
14:11
9,9 klux54,7 klux
15:16
40 Min 
24.
Februar
1,8 C-2,2 C
23:58
8,2 C
15:32
1017,6 hPa1014,3 hPa
23:18
1020,2 hPa
04:37
4,3 km/h
W
20,8 km/h
13:02  
---
30 Minuten
82 %55 %
15:22
92 %
04:57
19,9 klux61,6 klux
11:17
3:35 Std 
25.
Februar
-0,7 C-5,1 C
07:18
5,7 C
16:18
1014,3 hPa1013,3 hPa
16:18
1016,2 hPa
22:59
3,1 km/h
W-NW
26,9 km/h
14:38  
---
80 %62 %
16:23
88 %
10:08
24,5 klux61,6 klux
11:58
6:05 Std 
26.
Februar
0,4 C-1,9 C
03:39
3,7 C
12:14
1013,6 hPa1010,0 hPa
23:55
1016,3 hPa
03:39
0,4 km/h
O-SO
10,4 km/h
16:04  
---
79 %69 %
16:09
88 %
09:14
10,2 klux56,8 klux
12:04
15 Min 
27.
Februar
1,1 C-4,7 C
08:00
9,6 C
15:10
1009,1 hPa1006,6 hPa
15:10
1012,1 hPa
23:46
2,4 km/h
NO
27,1 km/h
15:50  
---
70 %46 %
15:10
85 %
08:10
29,1 klux50,3 klux
12:50
9:15 Std 
28.
Februar
0,9 C-2,6 C
07:01
6,1 C
14:01
1014,6 hPa1011,1 hPa
01:06
1018,0 hPa
23:17
4,6 km/h
NO
36,2 km/h
14:21  
---
70 %57 %
14:01
78 %
07:31
16,5 klux49,5 klux
13:51
1:15 Std 
29.
Februar
1,7 C-0,7 C
23:58
5,2 C
13:32
1019,3 hPa1018,0 hPa
00:02
1022,4 hPa
23:58
4,6 km/h
NO
33,7 km/h
11:17  
---
66 %55 %
13:27
74 %
04:42
11,8 klux61,3 klux
13:17
5 Min 



Februar
2016

Temperatur

  

Luftdruck

  

Wind

  

Regen

  

Luftfeuchte

  

Helligkeit

Sonnen-
schein

Min

Max

Min

Max

Max

Max

Min

Max

Max

Max

3,5 C

-5,1 C

07:18 Uhr
25.02.2016

13,2 C

15:41 Uhr
06.02.2016

1011,6 hPa

981,0 hPa

18:29 Uhr
09.02.2016

1036,9 hPa

11:10 Uhr
16.02.2016

12,4 km/h

W

63,5 km/h

10:33 Uhr
08.02.2016

12,6 l/m

13:26 Stunden
20.02.2016

80 %

46 %

15:10 Uhr
27.02.2016

92 %

01:41 Uhr
01.02.2016

10,9 klux

61,6 klux

11:17 Uhr
24.02.2016

9:15 Std

am
27.02.2016

Gesamt

Gesamt

65,1 l/m

20 Tage
116:46 h

45:01 Std


Wetter-Diagramme Februar 2016     Heinzenberg / Taunus   
TemperaturLuftfeuchte
SolarstrahlungLuftdruck
HelligkeitSonnenschein
RegenmengeRegendauer
Wind-GeschwindigkeitWind-Richtung